Terminal Aerodrome Forecast
Issued by NWS

Home | Current Version | Previous Version | Text Only | Print | Product List | Glossary On
Versions: 1 2 3 4 5 6 7 8 9 10 11 12
000
FTUS45 KRIW 192300
TAFWRL
TAF
KWRL 192320Z 2000/2024 VRB04KT P6SM SCT120 BKN200
     FM201000 VRB03KT P6SM VCFG BKN110
     FM201600 15005KT P6SM SCT100 SCT200=

USA.gov is the U.S. government's official web portal to all federal, state and local government web resources and services.